Stations météo

réclame
Mon MeteoGroup
Niort, France (7330): Température de l'air & dewpoint: 07.12.2017 04:00:00 - 13.12.2017 04:00:00 (CET)Niort, France (7330): Température de l'air 5cm: 07.12.2017 04:00:00 - 13.12.2017 04:00:00 (CET)Niort, France (7330): Température de l'air -20cm & Température de l'air -100cm: 07.12.2017 04:00:00 - 13.12.2017 04:00:00 (CET)Niort, France (7330): Vitesse du vent & gusts: 07.12.2017 04:00:00 - 13.12.2017 04:00:00 (CET)Niort, France (7330): Direction du vent: 07.12.2017 04:00:00 - 13.12.2017 04:00:00 (CET)Niort, France (7330): reduced air pressure: 07.12.2017 04:00:00 - 13.12.2017 04:00:00 (CET)Niort, France (7330): visibility: 07.12.2017 04:00:00 - 13.12.2017 04:00:00 (CET)Niort, France (7330): Ensoleillement: 07.12.2017 04:00:00 - 13.12.2017 04:00:00 (CET)Niort, France (7330): Quantités de précipitations: 07.12.2017 04:00:00 - 13.12.2017 04:00:00 (CET)
Date & Time tt [°C] td [°C] tt 5cm [°C] tt -20cm [°C] tt -100cm [°C] ff [km/h] ff [knt] fx [km/h] fx [knt] dd ppp [hPa] vv [km] sd [min] rr [mm]
13.12.2017 04:00:00 5,6 3,9 4,3 8,1 10,0 18 10 29 15 S 1016,8 20 0 0,0
13.12.2017 03:00:00 4,7 3,5 3,4 8,1 10,0 16 8 24 13 SSE 1017,6 20 0 0,0
13.12.2017 02:00:00 3,9 2,9 2,6 8,1 10,0 11 6 21 11 SSE 1018,1 20 0 0,0
13.12.2017 01:00:00 3,5 2,5 2,3 8,1 10,0 13 7 18 10 SSE 1018,4 16 0 0,0
13.12.2017 00:00:00 4,5 3,2 3,7 8,1 10,0 14 8 19 10 SSE 1018,4 20 0 0,0
12.12.2017 23:00:00 4,9 3,6 3,1 8,2 10,0 13 7 22 12 SSE 1018,8 20 0 0,0
12.12.2017 22:00:00 3,8 2,6 2,1 8,2 10,0 6 4 13 7 SE 1018,7 19 0 0,0
12.12.2017 21:00:00 3,2 2,2 0,6 8,2 10,0 7 4 11 6 SE 1019,0 18 0 0,0
12.12.2017 20:00:00 2,5 1,2 -0,2 8,2 10,0 7 4 12 7 SSE 1018,5 20 0 0,0
12.12.2017 19:00:00 3,1 1,5 1,4 8,2 10,0 9 5 15 8 S 1017,8 20 0 0,0
12.12.2017 18:00:00 4,6 2,1 3,1 8,2 10,0 10 5 16 9 S 1017,6 20 0 0,0
12.12.2017 17:00:00 6,5 2,9 5,7 8,2 9,9 12 6 24 13 SSW 1017,0 20 47 0,0
12.12.2017 16:00:00 7,9 3,0 7,5 8,2 10,0 14 8 27 15 SSW 1016,7 20 56 0,0
12.12.2017 15:00:00 8,4 2,8 6,4 8,2 10,0 15 8 23 12 S 1016,1 20 49 0,0
12.12.2017 14:00:00 6,7 2,4 5,5 8,2 10,0 11 6 18 10 S 1015,9 20 13 0,0
12.12.2017 13:00:00 6,6 0,7 6,2 8,3 10,0 11 6 17 9 SSW 1016,2 20 23 0,0
12.12.2017 12:00:00 4,4 1,9 5,0 8,2 10,0 9 5 16 9 SSE 1015,8 20 46 0,0
12.12.2017 11:00:00 2,3 1,9 -0,5 8,3 10,0 13 7 18 10 SE 1015,5 10 54 0,0
12.12.2017 10:00:00 -0,6 -1,0 -3,0 8,3 10,0 8 4 14 8 SE 1014,8 0,6 57 0,0
12.12.2017 09:00:00 -2,3 -2,9 -5,8 8,3 10,0 5 3 10 5 ESE 1013,9 0,1 0 0,0
12.12.2017 08:00:00 -2,5 -3,3 -5,4 8,2 10,0 4 2 8 5 SSE 1012,7 0,2 0 0,0
12.12.2017 07:00:00 -0,9 -1,6 -6,0 8,2 9,9 6 3 11 6 SE 1011,8 2,3 0 0,0
12.12.2017 06:00:00 0,2 -0,7 -4,2 8,2 9,9 6 4 13 7 WNW 1010,4 12 0 0,0
12.12.2017 05:00:00 0,8 -0,1 -4,3 8,2 10,0 10 5 14 7 WNW 1009,5 14 0 0,0
12.12.2017 04:00:00 1,3 0,4 -3,0 8,2 10,0 7 4 11 6 WNW 1008,1 12 0 0,0
12.12.2017 03:00:00 1,7 0,5 -2,1 8,2 10,0 9 5 11 6 WSW 1006,7 16 0 0,0
12.12.2017 02:00:00 2,4 1,2 -2,9 8,2 10,0 5 3 10 5 WNW 1005,2 20 0 0,0
12.12.2017 01:00:00 2,9 1,1 -1,8 8,2 10,0 4 2 9 5 WNW 1004,2 20 0 0,0
12.12.2017 00:00:00 4,2 1,6 2,7 8,2 10,0 5 3 13 7 WNW 1003,1 20 0 0,0
11.12.2017 23:00:00 4,5 1,5 3,4 8,1 10,0 9 5 22 12 NW 1001,4 20 0 0,0
11.12.2017 22:00:00 5,1 1,6 4,4 8,1 10,0 9 5 17 9 NNW 999,1 20 0 0,0
11.12.2017 21:00:00 5,0 1,7 3,6 8,1 10,0 9 5 16 9 NW 997,6 20 0 0,0
11.12.2017 20:00:00 5,0 1,5 3,4 8,1 10,0 8 5 24 13 NNW 995,4 20 0 0,0
11.12.2017 19:00:00 6,3 3,1 5,1 8,1 10,0 10 5 31 17 NNW 992,7 20 0 0,0
11.12.2017 18:00:00 7,3 3,3 5,9 8,0 10,0 13 7 25 14 NW 990,8 20 0 0,2
11.12.2017 17:00:00 8,0 2,9 7,6 8,0 10,0 12 6 28 15 WNW 988,7 20 0 0,0
11.12.2017 16:00:00 8,4 3,4 8,2 8,0 10,0 16 9 35 19 W 987,1 20 0 0,0
11.12.2017 15:00:00 8,8 3,2 9,0 8,0 10,0 23 12 42 23 WNW 985,4 20 7 0,0
11.12.2017 14:00:00 9,0 3,8 9,5 8,0 10,0 28 15 50 27 WNW 984,1 20 18 0,0
11.12.2017 13:00:00 9,6 5,2 7,5 8,0 10,0 33 18 61 33 W 982,4 20 34 0,2
11.12.2017 12:00:00 9,0 6,3 7,5 7,9 10,0 34 18 76 41 WSW 981,8 17 14 0,2
11.12.2017 11:00:00 9,6 5,2 8,1 7,9 10,0 42 23 77 42 WSW 980,7 16 22 0,0
11.12.2017 10:00:00 9,5 4,5 8,6 7,9 10,0 41 22 80 43 WSW 979,4 20 8 0,0
11.12.2017 09:00:00 9,5 4,5 8,5 7,9 10,0 47 25 96 52 SW 977,8 19 0 0,0
11.12.2017 08:00:00 9,3 4,3 7,5 7,9 10,0 51 28 103 55 SW 976,3 12 0 0,0
11.12.2017 07:00:00 9,3 4,9 8,7 7,8 10,0 55 30 93 50 SW 975,3 17 0 0,0
11.12.2017 06:00:00 10,0 4,8 9,1 7,8 10,0 58 31 94 51 SW 974,0 13 0 0,0
11.12.2017 05:00:00 10,5 5,7 9,4 7,8 10,0 53 29 87 47 SSW 973,6 12 0 0,0
11.12.2017 04:00:00 11,1 8,3 10,2 7,8 10,0 42 23 72 39 S 973,8 20 0 0,4
11.12.2017 03:00:00 11,0 9,7 10,2 7,8 10,0 36 19 69 38 S 974,9 8 0 3,1
11.12.2017 02:00:00 10,7 9,6 9,8 7,8 10,0 37 20 55 30 S 975,7 10 0 2,6
11.12.2017 01:00:00 10,4 9,3 9,6 7,7 10,0 38 21 56 30 SSE 977,5 13 0 1,0
11.12.2017 00:00:00 10,0 8,9 9,1 7,7 10,0 31 17 52 28 SSE 979,9 20 0 0,0
10.12.2017 23:00:00 9,6 8,5 9,2 7,7 10,0 30 16 45 24 SSE 982,0 19 0 1,0
10.12.2017 22:00:00 10,0 9,1 9,6 7,7 10,1 24 13 44 24 S 984,8 9 0 1,5
10.12.2017 21:00:00 10,2 9,3 9,6 7,7 10,1 20 11 32 17 S 986,1 11 0 0,4
10.12.2017 20:00:00 10,2 9,3 9,7 7,6 10,0 20 11 37 20 SSW 988,3 6 0 1,2
10.12.2017 19:00:00 10,4 9,3 9,8 7,6 10,1 24 13 46 25 SSW 989,2 12 0 0,8
10.12.2017 18:00:00 10,4 9,3 9,5 7,6 10,1 25 14 46 25 SSW 990,8 6 0 2,4
10.12.2017 17:00:00 10,0 8,9 9,2 7,6 10,1 23 13 39 21 SSW 991,3 5 0 0,6
10.12.2017 16:00:00 10,3 8,2 9,3 7,6 10,1 27 15 52 28 SW 992,1 11 0 0,2
10.12.2017 15:00:00 12,0 8,1 11,6 7,6 10,1 24 13 41 22 SW 993,1 13 0 0,0
10.12.2017 14:00:00 12,3 8,9 12,1 7,6 10,1 26 14 44 24 WSW 994,0 11 0 0,0
10.12.2017 13:00:00 12,5 9,1 12,3 7,6 10,1 29 16 60 33 W 995,3 11 0 0,0
10.12.2017 12:00:00 12,5 9,9 12,0 7,6 10,1 31 17 55 30 WSW 995,6 10 0 0,0
10.12.2017 11:00:00 12,5 9,7 11,6 7,6 10,1 33 18 61 33 WSW 995,6 12 0 0,0
10.12.2017 10:00:00 13,2 10,9 12,3 7,6 10,1 39 21 81 44 W 995,2 20 0 3,2
10.12.2017 09:00:00 14,0 12,9 13,2 7,7 10,1 53 29 84 45 WSW 994,5 2,7 0 1,4
10.12.2017 08:00:00 13,8 12,9 12,8 7,7 10,1 49 26 81 44 WSW 995,6 2,6 0 1,2
10.12.2017 07:00:00 13,3 12,5 8,9 7,7 10,1 37 20 63 34 WSW 997,4 12 0 3,3
10.12.2017 06:00:00 9,1 8,6 5,7 7,7 10,1 23 13 39 21 SSW 998,9 3,8 0 1,2
10.12.2017 05:00:00 5,8 5,2 4,8 7,7 10,1 16 9 35 19 SSE 1000,8 3,9 0 2,6
10.12.2017 04:00:00 5,0 4,3 4,3 7,7 10,1 26 14 42 23 S 1002,8 4,6 0 0,8
10.12.2017 03:00:00 4,6 3,7 4,1 7,7 10,1 29 15 44 24 SSE 1003,9 10 0 0,2
10.12.2017 02:00:00 4,5 3,5 3,8 7,7 10,1 27 15 44 24 SSE 1005,6 19 0 0,0
10.12.2017 01:00:00 4,2 3,2 3,7 7,7 10,1 31 17 44 24 SSE 1007,6 20 0 0,0
10.12.2017 00:00:00 4,7 2,6 3,8 7,7 10,2 31 17 49 26 SSE 1009,7 20 0 0,0
09.12.2017 23:00:00 4,7 2,6 3,8 7,8 10,2 24 13 38 20 SSE 1011,8 18 0 0,2
09.12.2017 22:00:00 4,8 2,3 3,8 7,8 10,2 22 12 33 18 SSE 1013,1 20 0 0,0
09.12.2017 21:00:00 4,7 2,6 3,7 7,8 10,2 18 10 29 16 SSE 1014,5 20 0 0,2
09.12.2017 20:00:00 4,7 2,6 3,8 7,8 10,2 19 10 29 16 S 1016,0 20 0 0,0
09.12.2017 19:00:00 5,0 2,0 4,1 7,8 10,2 16 9 27 14 S 1016,9 20 0 0,0
09.12.2017 18:00:00 4,9 1,7 4,3 7,9 10,2 14 7 19 11 S 1018,1 20 0 0,0
09.12.2017 17:00:00 5,1 1,8 4,6 7,8 10,2 12 6 22 12 S 1019,0 20 0 0,0
09.12.2017 16:00:00 5,7 1,8 5,6 7,9 10,2 12 7 18 10 S 1020,3 20 6 0,0
09.12.2017 15:00:00 6,0 2,1 6,1 7,9 10,2 10 6 21 12 S 1021,2 20 6 0,0
09.12.2017 14:00:00 5,4 1,3 6,0 7,9 10,2 15 8 21 11 S 1022,6 20 0 0,0
09.12.2017 13:00:00 5,3 1,2 6,6 7,9 10,2 9 5 15 8 S 1023,8 20 48 0,0
09.12.2017 12:00:00 3,6 0,1 2,4 7,9 10,2 8 5 12 6 SSE 1024,6 20 55 0,0
09.12.2017 11:00:00 0,9 -0,7 -0,3 8,0 10,2 4 2 9 5 SE 1025,3 18 30 0,0
09.12.2017 10:00:00 -0,8 -1,8 -4,2 8,0 10,2 4 2 8 4 E 1025,5 15 54 0,0
09.12.2017 09:00:00 -2,8 -3,6 -7,2 8,0 10,2 8 5 12 6 SSE 1025,9 15 0 0,0
09.12.2017 08:00:00 -4,1 -5,2 -7,9 8,0 10,2 6 3 10 5 SE 1025,6 14 0 0,0
09.12.2017 07:00:00 -4,4 -5,5 -8,0 8,0 10,2 4 2 6 3 E 1025,7 10 0 0,0
09.12.2017 06:00:00 -3,8 -4,9 -7,1 8,0 10,2 2 1 9 5 ESE 1025,8 10 0 0,0
09.12.2017 05:00:00 -2,5 -3,2 -7,3 8,0 10,2 8 4 9 5 S 1025,8 12 0 0,0
09.12.2017 04:00:00 -3,4 -5,0 -7,4 8,0 10,2 2 1 6 3 SSE 1026,3 9 0 0,0
09.12.2017 03:00:00 -2,1 -3,5 -6,3 8,0 10,2 0 0 9 5 N 1026,3 12 0 0,0
09.12.2017 02:00:00 -0,5 -2,2 -4,3 8,0 10,3 5 3 11 6 W 1026,1 17 0 0,0
09.12.2017 01:00:00 0,8 -1,8 -2,7 8,0 10,2 8 4 14 8 WNW 1026,3 20 0 0,0
09.12.2017 00:00:00 0,8 -1,8 -2,9 8,0 10,2 8 5 13 7 WNW 1026,5 20 0 0,0
08.12.2017 23:00:00 0,9 -1,7 -2,8 8,0 10,3 9 5 13 7 W 1026,6 18 0 0,0
08.12.2017 22:00:00 1,8 -1,6 -3,0 8,0 10,2 8 5 13 7 WNW 1026,2 20 0 0,0
08.12.2017 21:00:00 2,7 -1,7 0,0 8,0 10,3 9 5 16 9 WNW 1026,2 20 0 0,0
08.12.2017 20:00:00 3,5 -1,5 0,9 7,9 10,2 10 5 19 10 NW 1026,2 20 0 0,0
08.12.2017 19:00:00 4,0 -1,4 1,0 7,9 10,3 10 5 16 9 WNW 1025,6 20 0 0,0
08.12.2017 18:00:00 5,0 -1,3 1,7 7,9 10,2 10 5 25 14 NW 1025,1 20 0 0,0
08.12.2017 17:00:00 6,7 -1,0 5,5 7,9 10,3 20 11 29 16 WNW 1024,9 20 39 0,0
08.12.2017 16:00:00 8,0 -0,8 8,1 7,9 10,3 19 11 38 21 WNW 1024,5 20 50 0,0
08.12.2017 15:00:00 8,9 -0,7 10,8 7,9 10,3 18 10 41 22 NW 1024,5 20 60 0,0
08.12.2017 14:00:00 8,8 0,5 8,4 7,9 10,3 20 11 36 19 WNW 1024,8 20 51 0,0
08.12.2017 13:00:00 8,7 3,1 11,1 7,9 10,3 18 10 27 14 WNW 1025,4 20 60 0,0
08.12.2017 12:00:00 7,7 3,5 7,9 7,9 10,3 14 8 24 13 WNW 1025,4 20 58 0,0
08.12.2017 11:00:00 6,3 3,6 4,9 7,9 10,3 11 6 17 9 WNW 1025,3 19 50 0,0
08.12.2017 10:00:00 4,9 3,6 2,1 7,9 10,3 10 5 16 8 W 1024,6 12 29 0,0
08.12.2017 09:00:00 3,9 3,0 0,6 7,9 10,3 9 5 14 8 W 1023,8 13 0 0,0
08.12.2017 08:00:00 3,5 2,8 0,1 7,8 10,3 8 4 11 6 W 1023,7 10 0 0,0
08.12.2017 07:00:00 3,5 2,5 0,9 7,9 10,3 6 3 13 7 W 1023,2 7 0 0,0
08.12.2017 06:00:00 5,3 3,9 3,7 7,8 10,3 4 2 10 5 W 1022,9 13 0 0,0
08.12.2017 05:00:00 5,3 4,1 3,6 7,8 10,3 4 2 11 6 WNW 1022,6 12 0 0,0
08.12.2017 04:00:00 5,4 4,2 3,8 7,8 10,4 9 5 17 9 WNW 1022,4 12 0 0,0
08.12.2017 03:00:00 6,5 5,1 4,9 7,8 10,4 9 5 14 7 WNW 1021,6 13 0 0,0
08.12.2017 02:00:00 6,7 5,5 2,2 7,8 10,3 7 4 12 6 WNW 1021,0 16 0 0,0
08.12.2017 01:00:00 8,4 6,2 7,6 7,8 10,3 7 4 37 20 NW 1020,8 20 0 0,0
08.12.2017 00:00:00 9,2 7,1 8,5 7,8 10,3 24 13 46 25 NNW 1020,2 18 0 0,4
07.12.2017 23:00:00 10,5 9,4 10,0 7,8 10,4 21 11 32 17 W 1019,3 20 0 0,0
07.12.2017 22:00:00 11,3 10,7 10,7 7,8 10,4 21 11 31 17 WNW 1018,9 2,1 0 2,8
07.12.2017 21:00:00 10,9 10,3 10,0 7,8 10,4 8 4 34 18 WSW 1018,6 1,9 0 3,9
07.12.2017 20:00:00 10,3 9,7 9,5 7,8 10,4 18 10 44 24 SSW 1018,8 1,9 0 2,2
07.12.2017 19:00:00 9,9 9,1 8,6 7,8 10,4 32 18 47 26 S 1018,9 1,9 0 0,2
07.12.2017 18:00:00 8,9 8,3 7,8 7,9 10,4 29 15 42 23 S 1019,4 6 0 0,0
07.12.2017 17:00:00 8,0 7,2 7,1 7,8 10,4 22 12 36 19 S 1020,1 2,6 0 3,6
07.12.2017 16:00:00 7,6 6,4 7,0 7,8 10,4 24 13 39 21 S 1020,4 2,9 0 0,6
07.12.2017 15:00:00 7,6 5,7 6,1 7,9 10,4 24 13 35 19 S 1021,3 16 0 0,0
07.12.2017 14:00:00 6,3 5,3 5,5 7,8 10,4 20 11 40 21 S 1022,7 8 0 0,6
07.12.2017 13:00:00 6,0 4,3 5,7 7,8 10,4 21 12 40 22 S 1023,8 10 0 0,0
07.12.2017 12:00:00 5,5 4,1 4,5 7,9 10,4 27 15 39 21 SSE 1024,8 8 0 0,0
07.12.2017 11:00:00 4,8 3,8 4,4 7,9 10,4 24 13 36 19 S 1025,7 5 0 0,4
07.12.2017 10:00:00 4,5 3,3 2,8 7,9 10,4 22 12 32 17 S 1025,8 4,7 13 0,0
07.12.2017 09:00:00 2,8 2,1 2,1 7,8 10,4 14 8 32 17 SSE 1026,2 7 0 0,0
07.12.2017 08:00:00 2,2 1,6 1,7 7,9 10,5 17 9 27 15 SSE 1026,7 6 0 0,0
07.12.2017 07:00:00 1,7 1,3 1,4 7,9 10,4 16 9 26 14 SSE 1027,3 4,7 0 0,0
07.12.2017 06:00:00 1,4 1,0 1,3 7,9 10,5 14 8 22 12 S 1027,8 5 0 0,0
07.12.2017 05:00:00 1,3 0,9 1,0 7,9 10,4 15 8 25 14 SSE 1028,1 4,4 0 0,0
07.12.2017 04:00:00 1,0 0,7 0,8 8,0 10,5 15 8 29 15 SE 1028,3 1,5 0 0,0

tt = Température de l'air
td = dewpoint
tt 5cm = Température de l'air 5cm
tt -20cm = Température de l'air -20cm
tt -100cm = Température de l'air -100cm
ff = Vitesse du vent
fx = gusts
dd = Direction du vent
ppp = reduced air pressure
vv = visibility
sd = Ensoleillement
rr = Quantités de précipitations

stations d'obs. à proximité